This demonstration page uses our WeatherBlox Daily Observations layout. Learn more.

Left ArrowRight Arrow

Hourly Observations for January 28, 2022

Temp ( °F °C ) Dew Point ( °F °C ) Humidity (%) Winds ( mph kmh ) Pressure ( in mb ) Visibility ( mi km ) Precip ( " mm )
12:53 am 00:53 Clear 41 5 27 -2.8 57 57 Calm 30.31 1026 10 16 0.00 0.00
1:53 am 01:53 Clear 38 3.3 28 -2.2 68 68 Calm 30.31 1027 10 16 0.00 0.00
2:53 am 02:53 Clear 38 3.3 25 -3.9 60 60 Calm 30.32 1027 10 16 0.00 0.00
3:53 am 03:53 Clear 35 1.7 27 -2.8 72 72 Calm 30.32 1027 10 16 0.00 0.00
4:53 am 04:53 Clear 35 1.7 27 -2.8 72 72 Calm 30.32 1027 10 16 0.00 0.00
5:53 am 05:53 Clear 33 0.6 25 -3.9 72 72 Calm 30.33 1027 10 16 0.00 0.00
6:53 am 06:53 Clear 32 0 26 -3.3 79 79 Calm 30.34 1027 10 16 0.00 0.00
7:53 am 07:53 Sunny 34 1.1 26 -3.3 73 73 Calm 30.34 1027 10 16 0.00 0.00
8:53 am 08:53 Sunny 40 4.4 30 -1.1 68 68 Calm 30.34 1027 10 16 0.00 0.00
9:53 am 09:53 Sunny 48 8.9 31 -0.6 52 52 Calm 30.34 1027 10 16 0.00 0.00
10:53 am 10:53 Sunny 60 15.6 33 0.6 36 36 Calm 30.32 1027 10 16 0.00 0.00
11:53 am 11:53 Sunny 65 18.3 24 -4.4 21 21 N 6 9 30.29 1026 10 16 0.00 0.00
12:53 pm 12:53 Sunny 67 19.4 24 -4.4 20 20 N 6 9 30.26 1025 10 16 0.00 0.00
1:53 pm 13:53 Sunny 69 20.6 24 -4.4 18 18 NNW 3 6 30.24 1024 10 16 0.00 0.00
2:53 pm 14:53 Sunny 70 21.1 23 -5 17 17 Calm 30.23 1024 10 16 0.00 0.00
3:53 pm 15:53 Sunny 69 20.6 24 -4.4 18 18 Calm 30.21 1023 10 16 0.00 0.00
4:53 pm 16:53 Sunny 64 17.8 30 -1.1 28 28 S 6 9 30.20 1023 10 16 0.00 0.00
5:53 pm 17:53 Clear 59 15 28 -2.2 31 31 S 7 11 30.22 1023 10 16 0.00 0.00
6:53 pm 18:53 Clear 51 10.6 33 0.6 50 50 SE 9 15 30.24 1024 10 16 0.00 0.00
7:53 pm 19:53 Clear 51 10.6 35 1.7 54 54 Calm 30.25 1024 10 16 0.00 0.00
8:53 pm 20:53 Clear 46 7.8 34 1.1 63 63 NW 3 6 30.26 1025 10 16 0.00 0.00
9:53 pm 21:53 Clear 44 6.7 34 1.1 68 68 Calm 30.27 1025 10 16 0.00 0.00
10:53 pm 22:53 Clear 41 5 32 0 70 70 Calm 30.26 1025 10 16 0.00 0.00
11:53 pm 23:53 Clear 40 4.4 32 0 73 73 Calm 30.25 1024 10 16 0.00 0.00

Powered by AerisWeather